Location: Fontevrault
(47.1823°N, 0.0493°E)
Time: 14:48:08
(UTC+00:00)

ATLAS 3B R/B - Pass Details

Date: 16 June 2021
Orbit: 1003 x 1191 km, 63.8° (Epoch: 21 July)

Event Time Altitude Azimuth Distance (km) Brightness Sun altitude
Rises 23:05:34 0° 229° (SW) 3,724 5.3 -18.4°
Reaches altitude 10° 23:08:09 10° 233° (SW) 2,786 4.6 -18.4°
Maximum altitude 23:14:38 64° 314° (NW) 1,136 3.0 -18.7°
Drops below altitude 10° 23:21:24 10° 36° (NE) 2,896 5.6 -18.9°
Sets 23:24:09 0° 40° (NE) 3,881 6.3 -19.0°
